Change the Weather History Date:

Monday, June 24, 2013

  Actual Average Record
Temperature  
Mean Temperature 48 °F -  
Max Temperature 68 °F 61 °F 73 °F (1998)
Min Temperature 28 °F 26 °F 19 °F (2000)
Degree Days  
Heating Degree Days 17    
Moisture  
Dew Point 28 °F    
Average Humidity 46    
Maximum Humidity 69    
Minimum Humidity 14    
Precipitation  
Precipitation 0.00 in 0.01 in - ()
Sea Level Pressure  
Sea Level Pressure 30.25 in    
Wind  
Wind Speed 4 mph ()    
Max Wind Speed 16 mph    
Max Gust Speed -    
Visibility 17.2 miles    
Events      
Averages and records for this station are not official NWS values.
T = Trace of Precipitation, MM = Missing Value Source: Averaged Metar Reports

Daily Weather History Graph

Daily Weather History Graph

Search for Another Location

Airport or City:

Trip Planner

Search our weather history database for the weather conditions in past years. The results will help you decide how hot, cold, wet, or windy it might be!

Date:

Astronomy

Jun. 24, 2013 Rise Set
Actual Time 7:08 AM SAST 5:25 PM SAST
Civil Twilight 6:42 AM SAST 5:51 PM SAST
Nautical Twilight 6:12 AM SAST 6:21 PM SAST
Astronomical Twilight 5:43 AM SAST 6:50 PM SAST
Moon 6:50 PM SAST (6/24) 7:44 AM SAST (6/24)
Length of Visible Light 11h 09m
Length of Day
10h 17m
Full, 99% of the Moon is Illuminated
Jun 24
Full
Jun 30
Last Quarter
Jul 8
New
Jul 16
First Quarter
Jul 22
Full

Hourly Weather History & Observations

Time (SAST) Temp. Dew Point Humidity Pressure Visibility Wind Dir Wind Speed Gust Speed Precip Events Conditions
12:00 AM 35.6 °F 21.2 °F 56% 30.30 in - South 1.2 mph - N/A   Unknown
1:00 AM 33.8 °F 21.2 °F 60% 30.30 in - SE 1.2 mph - N/A   Unknown
2:00 AM 39 °F 21 °F 35%  in - NNE 3.5 mph - -  
2:00 AM 37.4 °F 21.2 °F 52% 30.30 in - NNE 2.3 mph - N/A   Unknown
3:00 AM 32.0 °F 21.2 °F 64% 30.30 in - Calm Calm - N/A   Unknown
4:00 AM 30.2 °F 21.2 °F 69% 30.30 in - Calm Calm - N/A   Unknown
5:00 AM 29 °F 20 °F 60%  in 19 mi Calm Calm - -  
5:00 AM 30.2 °F 21.2 °F 69% 30.27 in - South 1.2 mph - N/A   Clear
6:00 AM 30.2 °F 21.2 °F 69% 30.30 in - Calm Calm - N/A   Clear
7:00 AM 30.2 °F 21.2 °F 69% 30.30 in - Variable 2.3 mph - N/A   Clear
7:44 AM 32.0 °F 21.2 °F 64% 30.30 in - Variable 1.2 mph - N/A   Clear
8:00 AM 38 °F 22 °F 39%  in 19 mi Calm Calm - -  
8:00 AM 37.4 °F 23.0 °F 56% 30.30 in - WSW 1.2 mph - N/A   Clear
8:05 AM 37.4 °F 24.8 °F 60% 30.30 in - Variable 1.2 mph - N/A   Clear
8:44 AM 44.6 °F 28.4 °F 53% 30.30 in - Calm Calm - N/A   Clear
9:00 AM 44.6 °F 28.4 °F 53% 30.30 in - Variable 2.3 mph - N/A   Clear
9:45 AM 51.8 °F 32.0 °F 47% 30.33 in - NE 4.6 mph - N/A   Clear
10:00 AM 51.8 °F 33.8 °F 50% 30.33 in - NE 5.8 mph - N/A   Clear
10:06 AM 57.2 °F 35.6 °F 44% 30.30 in - NNE 6.9 mph - N/A   Clear
11:00 AM 59 °F 35 °F 29%  in 19 mi North 13.8 mph - -  
11:00 AM 59.0 °F 33.8 °F 39% 30.30 in - North 12.7 mph - N/A   Clear
12:00 PM 64.4 °F 37.4 °F 37% 30.27 in - NNE 11.5 mph - N/A   Clear
1:00 PM 64.4 °F 32.0 °F 30% 30.24 in - NNW 16.1 mph - N/A   Clear
2:00 PM 67 °F 30 °F 14%  in 19 mi NNW 11.5 mph - -  
2:00 PM 66.2 °F 30.2 °F 26% 30.18 in - NNW 10.4 mph - N/A   Clear
3:00 PM 68.0 °F 33.8 °F 28% 30.18 in - North 16.1 mph - N/A   Clear
4:00 PM 66.2 °F 33.8 °F 30% 30.15 in - North 15.0 mph - N/A   Clear
5:00 PM 65 °F 30 °F 16%  in 19 mi NNW 10.4 mph - -  
5:00 PM 64.4 °F 32.0 °F 30% 30.15 in - NNW 10.4 mph - N/A   Clear
6:00 PM 57.2 °F 32.0 °F 38% 30.15 in - NNW 8.1 mph - N/A   Clear
7:00 PM 51.8 °F 32.0 °F 47% 30.18 in - North 4.6 mph - N/A   Clear
8:00 PM 53 °F 29 °F 28%  in 19 mi North 8.1 mph - -  
8:00 PM 51.8 °F 30.2 °F 44% 30.18 in - North 8.1 mph - N/A   Clear
9:00 PM 50.0 °F 30.2 °F 47% 30.18 in 6.2 mi North 5.8 mph - N/A   Unknown
10:00 PM 48.2 °F 30.2 °F 50% 30.18 in - North 4.6 mph - N/A   Unknown
11:00 PM 44 °F 28 °F 40%  in - Calm Calm - -  
11:00 PM 42.8 °F 28.4 °F 57% 30.18 in - Calm Calm - N/A   Unknown